STARLINK-3859, 52470

Orbit data source: Space-Track

STARLINK-3859, 52470 is a payload satellite owned by SpaceX/Seattle (US) in LEO that was launched on Fri, 06 May 2022 UTC via an FALCON 9 launch vehicle from the Air Force Eastern Test Range (AFETR). Payload-class satellites include a variety of spacecraft equipped with specific instruments for various scientific and technological missions. These include communications satellites like Starlink; space stations such as the ISS; scientific satellites like the Hubble; Earth observation satellites from companies like Planet Labs, Umbra, and HawkEye 360; GPS; miniature CubeSats for education and research; and military/defense satellites.

Loading next visibility...
Identifier
52470, 2022-049V
Orbit
LEO
Country
Flag of USUS
Related business
Manufacturer
SpaceX/Seattle
Mission
Operational Commercial Communications
Bus & Motor
STARLINK, Unknown motor
Mass
297 kg wet, ~220 kg dry
Launch date (UTC)
2022-05-06 (4 years ago)
Launch vehicle
FALCON 9
Launch site
Air Force Eastern Test Range (AFETR)
Object type
Payload
Rocket body
Debris
Shape & HBR
Box + 1 Pan, 10.1 m
Radar Cross Section
13.562 m², Large (>1 m²)

Expand to show TLE details & history
Last TLE update: 3 days ago

TLE from 3 days ago
0 STARLINK-3859
1 52470U 22049V   26170.78512200  .00000431  00000-0  45187-4 0  9993
2 52470  53.1598 320.6804 0001614  90.2555 269.8621 15.08831574227661
Epoch: 2026-06-19T18:50Z
TLE epoch observation values (Epoch: 2026-06-19T18:50:34.540Z)
Latitude
-0.00007°
Longitude
130.02732°
Altitude
540.663 km
Speed
7.593 km/s
True Right ascension
21h 22m 43s
True Declination
0° 00' 00"
Sunlit
Object was in full shadow at epoch
Visualization orbit readout
Latitude
Unknown
Longitude
Unknown
Altitude
Unknown
Speed
Unknown
Apparent Right ascension
Unknown
Apparent Declination
Unknown
Sunlit
N/A
Visualization observer readout
Local Sidereal Time
21:47:23
Azimuth
Unknown
Elevation
Unknown
Doppler factor
Unknown
Orbital elements
Apogee altitude
541.14 km
Perigee altitude
538.907 km
Semi-major axis
6,918.16 km
Eccentricity
0.00016
Inclination
53.1598°
RAAN
320.6804°
Arg. of periapsis
90.2555°
True anomaly
269.8436°
Mean anomaly
269.8621°
Eccentric anomaly
269.85285°
Mean motion
3.77187 °/min
Orbital period
95.44 mins
BSTAR
0.000045187
Loading maneuver chart data...
Computing Atmospheric mass density...

Documentation

Showing up to 5 results
|